Weather History for Erie, PA

Change the Weather History Date:

Friday, April 25, 2014

  Actual Average Record
Temperature  
Mean Temperature 54 °F 51 °F  
Max Temperature 66 °F 60 °F 86 °F (2009)
Min Temperature 42 °F 41 °F 23 °F (1892)
Degree Days  
Heating Degree Days 11 15  
Month to date heating degree days 456 474  
Since 1 July heating degree days 6416 5750  
Cooling Degree Days 0 0  
Month to date cooling degree days 0 0  
Year to date cooling degree days 0 1  
Growing Degree Days 4 (Base 50)    
Moisture  
Dew Point 35 °F    
Average Humidity 58    
Maximum Humidity 92    
Minimum Humidity 23    
Precipitation  
Precipitation 0.24 in 0.10 in 1.48 in (1961)
Month to date precipitation 2.90 2.81  
Year to date precipitation 11.98 11.10  
Snow  
Snow 0.00 in 0.10 in - ()
Month to date snowfall 1.2 3.2  
Since 1 July snowfall 138.4 100.9  
Snow Depth 0.00 in    
Sea Level Pressure  
Sea Level Pressure 29.75 in    
Wind  
Wind Speed 12 mph (SW)    
Max Wind Speed 25 mph    
Max Gust Speed 35 mph    
Visibility 7 miles    
Events Rain    
T = Trace of Precipitation, MM = Missing Value Source: NWS Daily Summary

Daily Weather History Graph

Daily Weather History Graph

Search for Another Location

Airport:

Trip Planner

Search our weather history database for the weather conditions in past years. The results will help you decide how hot, cold, wet, or windy it might be!

Date:

Astronomy

Apr. 25, 2014 Rise Set
Actual Time 6:24 AM EDT 8:13 PM EDT
Civil Twilight 5:55 AM EDT 8:43 PM EDT
Nautical Twilight 5:18 AM EDT 9:19 PM EDT
Astronomical Twilight 4:39 AM EDT 9:58 PM EDT
Moon 4:16 AM EDT (4/25) 4:29 PM EDT (4/25)
Length of Visible Light 14h 48m
Length of Day
13h 48m
Waning Crescent, 15% of the Moon is Illuminated
Apr 25
Waning Crescent
Apr 29
New
May 6
First Quarter
May 14
Full
May 21
Last Quarter

Hourly Weather History & Observations

Time (EDT) Temp. Windchill Dew Point Humidity Pressure Visibility Wind Dir Wind Speed Gust Speed Precip Events Conditions
12:51 AM 50.0 °F - 17.1 °F 27% 29.93 in 10.0 mi ESE 9.2 mph - N/A   Clear
1:51 AM 50.0 °F - 18.0 °F 28% 29.91 in 10.0 mi ESE 6.9 mph - N/A   Overcast
2:51 AM 50.0 °F - 17.1 °F 27% 29.87 in 10.0 mi ESE 5.8 mph - N/A   Scattered Clouds
3:51 AM 50.0 °F - 17.1 °F 27% 29.86 in 10.0 mi SE 5.8 mph - N/A   Scattered Clouds
4:51 AM 50.0 °F - 17.1 °F 27% 29.81 in 10.0 mi SSE 12.7 mph 21.9 mph N/A   Clear
5:51 AM 51.1 °F - 17.1 °F 26% 29.77 in 10.0 mi SSE 20.7 mph 28.8 mph N/A   Clear
6:51 AM 51.1 °F - 18.0 °F 27% 29.75 in 10.0 mi SSE 24.2 mph 34.5 mph N/A   Clear
7:51 AM 53.1 °F - 19.0 °F 26% 29.73 in 10.0 mi SSE 20.7 mph 32.2 mph N/A   Clear
8:51 AM 57.9 °F - 21.9 °F 25% 29.72 in 10.0 mi SE 8.1 mph - N/A   Clear
9:51 AM 62.1 °F - 25.0 °F 24% 29.69 in 10.0 mi SSE 11.5 mph 17.3 mph N/A   Clear
10:51 AM 62.6 °F - 26.6 °F 26% 29.69 in 10.0 mi South 8.1 mph - N/A   Mostly Cloudy
11:51 AM 64.9 °F - 32.0 °F 29% 29.69 in 10.0 mi South 13.8 mph - N/A   Overcast
12:51 PM 60.1 °F - 42.1 °F 51% 29.68 in 10.0 mi South 9.2 mph - 0.00 in Rain Light Rain
1:51 PM 57.0 °F - 46.9 °F 69% 29.65 in 10.0 mi South 10.4 mph 18.4 mph 0.00 in Rain Light Rain
2:51 PM 55.0 °F - 48.9 °F 80% 29.65 in 7.0 mi SSE 12.7 mph - 0.03 in Rain Light Rain
3:51 PM 57.0 °F - 51.1 °F 81% 29.60 in 10.0 mi SSE 15.0 mph 24.2 mph 0.03 in Rain Light Rain
4:51 PM 55.9 °F - 51.1 °F 84% 29.62 in 2.0 mi South 11.5 mph - 0.01 in Rain Rain
5:05 PM 55.4 °F - 51.8 °F 88% 29.61 in 5.0 mi South 9.2 mph - 0.01 in Rain Light Rain
5:27 PM 55.4 °F - 51.8 °F 88% 29.63 in 2.5 mi West 20.7 mph 28.8 mph 0.02 in Rain Light Rain
5:35 PM 48.2 °F - 46.4 °F 93% 29.64 in 1.5 mi WSW 17.3 mph 28.8 mph 0.05 in Rain Rain
5:40 PM 48.2 °F - 46.4 °F 93% 29.64 in 2.0 mi WSW 20.7 mph 29.9 mph 0.06 in Rain Heavy Rain
5:51 PM 48.0 °F - 45.0 °F 89% 29.65 in 3.0 mi West 15.0 mph 26.5 mph 0.08 in Rain Rain
6:51 PM 44.1 °F 36.5 °F 42.1 °F 93% 29.70 in 8.0 mi WSW 17.3 mph 28.8 mph 0.09 in Rain Light Rain
7:51 PM 42.1 °F 33.6 °F 39.9 °F 92% 29.74 in 3.0 mi West 18.4 mph 27.6 mph 0.00 in   Overcast
7:59 PM 42.8 °F 36.6 °F 39.2 °F 87% 29.74 in 1.0 mi West 11.5 mph 24.2 mph N/A   Overcast
8:08 PM 42.8 °F 36.6 °F 39.2 °F 87% 29.74 in 1.0 mi West 11.5 mph 18.4 mph N/A   Overcast
8:27 PM 42.8 °F 36.2 °F 41.0 °F 93% 29.76 in 1.0 mi West 12.7 mph 23.0 mph N/A   Overcast
8:49 PM 44.6 °F 38.1 °F 41.0 °F 87% 29.78 in 1.0 mi West 13.8 mph - N/A   Overcast
8:51 PM 44.1 °F 37.4 °F 41.0 °F 89% 29.78 in 1.0 mi West 13.8 mph 21.9 mph N/A   Overcast
8:53 PM 44.6 °F 38.1 °F 41.0 °F 87% 29.78 in 6.0 mi West 13.8 mph 26.5 mph N/A   Overcast
9:32 PM 42.8 °F 35.8 °F 39.2 °F 87% 29.81 in 4.0 mi West 13.8 mph 25.3 mph N/A   Overcast
9:40 PM 42.8 °F 35.8 °F 39.2 °F 87% 29.81 in 7.0 mi West 13.8 mph 19.6 mph N/A   Overcast
9:48 PM 42.8 °F 37.0 °F 39.2 °F 87% 29.82 in 7.0 mi West 10.4 mph 18.4 mph N/A   Overcast
9:51 PM 43.0 °F 36.4 °F 39.0 °F 86% 29.83 in 7.0 mi West 12.7 mph 21.9 mph N/A   Overcast
10:17 PM 42.8 °F 36.2 °F 39.2 °F 87% 29.83 in 7.0 mi West 12.7 mph 20.7 mph N/A   Overcast
10:51 PM 42.8 °F 37.5 °F 37.4 °F 81% 29.84 in 6.0 mi West 9.2 mph - N/A   Overcast
11:51 PM 43.0 °F 37.7 °F 37.9 °F 82% 29.84 in 7.0 mi West 9.2 mph - N/A   Overcast